Location: Bogyesd
(46.2500°N, 22.4500°E)
Time: 02:31:54
(UTC+00:00)

Daily predictions for brighter satellites

Satellite Brightness Start Highest point End
(mag) Time Altitude Azimuth Time Altitude Azimuth Time Altitude Azimuth
Cosmos 2344 3.5 02:34:23 68° NNE 02:34:23 68° NNE 02:41:16 10° NE
CENTAUR R/B 2.8 02:43:36 59° NNE 02:43:36 59° NNE 02:49:24 10° NE
Meteor 2-3 Rocket 4.5 02:44:44 47° NE 02:44:44 47° NE 02:48:56 10° NNE
NOSS 3-2 (A) 4.0 03:00:36 44° N 03:00:36 44° N 03:05:34 10° NE
Meteor 1-26 Rocket 4.2 03:00:52 82° E 03:00:52 82° E 03:06:35 10° SSE
Tsikada Rocket 3.9 02:56:31 10° S 03:02:43 90° ESE 03:09:03 10° N
Cosmos 2369 Rocket 2.5 03:05:39 38° S 03:07:42 65° ESE 03:13:15 10° NNE
NOSS 3-2 (C) 3.3 03:08:14 74° NNW 03:08:14 74° NNW 03:14:24 10° NE
Meteor 1-31 Rocket 4.4 03:16:05 10° NNE 03:19:40 34° E 03:23:15 10° SSE
Cosmos 1656 Rocket 4.1 03:14:36 10° S 03:19:53 58° ESE 03:25:14 10° NNE
Envisat 3.6 03:16:23 10° NNE 03:21:23 55° E 03:26:21 10° S
H-2A R/B 4.2 03:20:28 10° NNE 03:25:44 29° SSE 03:27:47 10° S
Cosmos 968 Rocket 3.8 03:26:16 50° N 03:26:16 50° N 03:30:13 10° NNE
Cosmos 2098 Rocket 3.3 03:25:20 10° S 03:29:17 71° E 03:34:23 10° NNE
Cosmos 1943 Rocket 2.9 03:30:59 36° NNW 03:30:59 36° NNW 03:34:57 10° NNE
CZ-2C R/B 2.8 03:25:13 10° SSE 03:30:40 73° ENE 03:35:13 15° N
SKYMED 2 3.7 03:30:24 10° SSE 03:34:43 75° ENE 03:36:10 41° N
Cosmos 1862 3.6 03:31:35 10° S 03:35:28 64° E 03:39:24 10° NNE
Meteor 2-13 Rocket 4.3 03:29:43 10° SSW 03:35:49 77° W 03:41:56 10° N
USA 238 DEB 3.7 03:34:56 48° WNW 03:36:02 53° NW 03:42:48 10° NE
USA 238 3.7 03:35:01 48° WNW 03:36:09 53° NW 03:42:55 10° NE
Cosmos 921 Rocket 3.9 03:39:09 36° SSW 03:39:09 36° SSW 03:42:02 10° S
SL-8 R/B 3.5 03:37:29 73° W 03:37:56 84° SSW 03:42:43 10° ESE
USA 215 3.3 03:34:18 10° ESE 03:40:48 75° NNE 03:44:01 33° NW
MOS 1-B Rocket 3.8 03:37:11 10° S 03:43:24 66° WSW 03:46:59 24° NNW
SJ-12 3.8 03:46:54 10° N 03:51:03 76° WNW 03:55:10 10° SSW
H-2A R/B 4.0 03:47:25 10° ESE 03:51:04 28° ENE 03:54:47 10° N
FALCON 9 DEB 4.5 03:52:09 29° NNE 03:52:09 29° NNE 03:54:26 10° NE
DNEPR-1 R/B 3.9 03:50:37 45° NW 03:52:06 72° SW 03:57:48 10° SSE
Cosmos 1151 Rocket 2.9 03:51:51 52° NW 03:52:37 62° W 03:56:56 10° S
Cosmos 1354 Rocket 4.3 03:48:15 10° S 03:53:28 67° ESE 03:58:46 10° NNE
SL-19 R/B 4.3 03:48:29 10° S 03:53:56 54° WSW 03:56:43 28° NW
Okean 3 Rocket 3.5 03:52:26 10° S 03:56:59 81° W 04:01:33 10° N
BREEZE-M DEB (TANK) 3.9 03:59:20 31° WSW 04:01:15 44° SSW 04:15:18 10° SE
ADEOS 4.0 03:56:20 10° NNE 04:01:32 64° ESE 04:06:42 10° S
CZ-4B R/B 4.5 04:00:13 10° NNE 04:03:29 32° E 04:06:44 10° SSE
Cosmos 1766 Rocket 3.4 03:59:15 10° SSW 04:03:32 61° W 04:07:50 10° N
Meteor 1-27 Rocket 4.3 03:59:41 10° N 04:05:17 61° ENE 04:10:57 10° SSE
CZ-4B R/B 4.2 04:04:34 10° ESE 04:06:38 16° ENE 04:08:40 10° NNE
Cosmos 1328 Rocket 3.6 04:08:49 22° NNW 04:11:26 56° W 04:15:41 10° S
BREEZE M DEB (TANK) 2.8 04:12:17 37° NW 04:13:09 48° N 04:15:22 10° ENE
CZ-2C R/B 3.5 04:11:57 10° NNE 04:16:47 60° E 04:21:49 10° S
ATLAS 5 CENTAUR R/B 2.6 04:13:36 10° SSW 04:17:11 41° ESE 04:21:10 10° NE
Meteor 2-6 Rocket 4.3 04:13:32 11° NNW 04:18:31 49° W 04:23:40 10° SSW
Cosmos 2279 Rocket 4.1 04:12:33 10° NNW 04:18:32 52° W 04:24:30 10° SSW
COSMO-SKYMED 1 3.2 04:18:55 10° SSW 04:22:53 35° W 04:24:46 24° NW
Meteor 2-15 Rocket 4.4 04:18:28 10° N 04:24:35 87° W 04:30:39 10° S
Cosmos 1340 Rocket 3.5 04:21:45 10° S 04:25:37 56° E 04:29:32 10° NNE
Cosmos 1812 4.5 04:29:57 16° WSW 04:29:57 16° WSW 04:31:18 10° SW
Nadezhda 4 Rocket 4.0 04:22:42 10° S 04:28:52 89° E 04:35:10 10° N
CZ-4C R/B 3.1 04:26:34 10° S 04:29:33 40° W 04:30:39 28° NW
Cosmos 783 Rocket 4.5 04:26:17 13° NNW 04:30:55 62° WSW 04:36:02 10° S
Meteor PRIRODA 3.6 04:27:40 10° NNE 04:31:18 85° E 04:34:56 10° SSW
H-2A R/B 4.4 04:27:27 10° NE 04:31:26 24° E 04:35:25 10° SSE
CENTAUR R/B 3.7 04:30:49 20° WNW 04:34:06 29° NNW 04:40:29 10° NE
Cosmos 1503 Rocket 4.2 04:29:13 10° SW 04:34:18 49° WNW 04:39:31 10° NNE
Cosmos 1515 4.3 04:32:33 10° N 04:36:19 58° E 04:40:03 10° SSE
Cosmos 1408 Rocket 3.5 04:32:47 10° SSW 04:37:01 57° WNW 04:41:16 10° N
COSMOS 2487 3.2 04:33:56 10° N 04:37:13 48° ENE 04:40:28 10° SE
Cosmos 1939 Rocket 3.2 04:36:48 10° NNE 04:40:44 67° E 04:44:34 10° S
USA 32 4.2 04:36:07 10° N 04:41:24 76° E 04:46:38 10° S
Cosmos 2228 Rocket 3.6 04:37:51 10° N 04:42:20 63° ENE 04:46:49 10° SSE
Cosmos 1777 Rocket 3.9 04:37:55 10° SSW 04:43:08 84° WNW 04:48:25 10° NNE
Cosmos 1092 Rocket 4.3 04:39:07 10° S 04:45:20 72° E 04:51:39 10° NNE
Cosmos 1743 Rocket 3.5 04:41:32 10° S 04:45:55 86° W 04:50:18 10° N
Cosmos 2297 Rocket 3.5 04:42:12 10° NNW 04:47:26 36° NE 04:52:39 10° ESE
Cosmos 773 Rocket 4.2 04:42:51 10° NNW 04:47:54 49° WSW 04:52:51 10° S
DMSP B5D2-2 4.2 04:44:36 10° S 04:49:43 56° W 04:54:51 10° NNW
Cosmos 2369 Rocket 3.2 04:47:41 10° WSW 04:52:12 25° NW 04:56:46 10° N
Meteor 1-31 Rocket 4.0 04:50:51 10° NNW 04:53:50 21° WNW 04:56:50 10° WSW
Cosmos 1515 Rocket 4.1 04:50:05 10° NNW 04:54:06 36° W 04:58:03 10° SSW
NOAA 6 4.4 04:51:30 10° NNE 04:56:38 72° ESE 05:01:44 10° S
H-2A R/B 4.4 04:55:53 10° NNW 05:00:49 - WSW 04:57:29 14° WNW
SMAP 3.2 04:53:25 10° NNE 04:58:07 82° ESE 05:02:46 10° SSW
SJ 16-02 1.3 04:54:04 10° SSW 04:58:23 61° WNW 05:02:45 10° NNE
BREEZE-M DEB (TANK) 3.1 04:48:21 10° WSW 04:58:42 81° SSE 05:01:48 10° ENE
Okean 1 3.9 04:55:45 10° N 04:59:40 60° ENE 05:03:34 10° SSE
Envisat 4.1 04:56:10 10° NNW 05:00:01 22° WNW 05:03:53 10° WSW
SL-27 R/B 3.4 04:58:52 12° NW 05:01:41 29° WSW 05:04:45 10° SSW
ATLAS 3B R/B 2.7 04:55:45 10° SSW 05:02:16 85° SE 05:09:10 10° NE
FengYun 1-2 T 4.2 05:00:25 10° NNE 05:05:56 80° WNW 05:11:25 10° SSW
AQUARIUS 4.2 05:02:49 10° NNE 05:07:21 87° E 05:11:51 10° SSW
CZ-2D R/B 3.7 05:06:01 10° NNE 05:09:48 66° E 05:13:34 10° S
Cosmos 2263 Rocket 4.5 05:08:11 10° N 05:10:30 12° NE 05:12:49 10° ENE
CZ-2C R/B 4.1 05:08:01 10° SW 05:11:29 17° W 05:14:56 10° NW
Cosmos 1500 Rocket 4.0 05:09:56 10° SSW 05:14:09 42° WNW 05:18:25 10° N
Cosmos 158 Rocket 4.0 05:09:05 10° NNW 05:14:11 65° WSW 05:19:22 10° S
Cosmos 1943 Rocket 4.0 05:13:28 10° NW 05:14:53 11° NNW 05:16:19 10° NNW
Alouette 2 Rocket 3.6 05:12:17 10° NNW 05:15:49 40° W 05:19:11 10° SSW
FALCON 9 DEB 4.3 05:13:42 10° NW 05:16:05 22° N 05:18:28 10° ENE
Cosmos 1174 3.5 05:14:35 10° WSW 05:17:25 40° NW 05:20:27 10° NNE
FALCON 9 DEB 4.2 05:17:40 10° NW 05:20:07 25° NNE 05:22:33 10° ENE
FALCON 9 DEB 4.1 05:18:28 10° NW 05:20:57 26° NNE 05:23:26 10° ENE
Sich 1 3.0 05:18:27 10° SSW 05:22:43 71° W 05:27:00 10° N
NOAA 12 4.4 05:17:42 10° N 05:22:44 46° WNW 05:27:42 10° SW
CORIOLIS 4.2 05:17:36 10° NNE 05:23:05 79° WNW 05:28:30 10° SSW
Cosmos 2227 Rocket 3.1 05:17:42 10° NNW 05:23:12 47° ENE 05:28:37 10° SE
USA 215 4.0 05:18:09 10° SSE 05:24:08 38° SW 05:30:09 10° WNW
Meteor 1-19 Rocket 4.2 05:18:50 10° NNW 05:24:26 73° W 05:29:51 10° S
Meteor 1-20 Rocket 4.3 05:19:23 10° SSW 05:24:52 58° WNW 05:30:31 10° N
Cosmos 1707 Rocket 3.7 05:21:36 10° N 05:26:04 86° E 05:30:31 10° S
Cosmos 1805 Rocket 3.7 05:21:49 10° SSW 05:26:06 52° WNW 05:30:23 10° N
